STARLINK-3085, 49156

Orbit data source: Space-Track

STARLINK-3085, 49156 is a payload satellite owned by SpaceX/Seattle (US) in LEO that was launched on Tue, 14 Sep 2021 UTC via an FALCON 9 launch vehicle from the Air Force Western Test Range (AFWTR). Payload-class satellites include a variety of spacecraft equipped with specific instruments for various scientific and technological missions. These include communications satellites like Starlink; space stations such as the ISS; scientific satellites like the Hubble; Earth observation satellites from companies like Planet Labs, Umbra, and HawkEye 360; GPS; miniature CubeSats for education and research; and military/defense satellites.

Loading next visibility...
Identifier
49156, 2021-082AC
Orbit
LEO
Country
Flag of USUS
Related business
Manufacturer
SpaceX/Seattle
Mission
Operational Commercial Communications
Bus & Motor
STARLINK, Unknown motor
Mass
297 kg wet, ~275 kg dry
Launch date (UTC)
2021-09-14 (4 years ago)
Launch vehicle
FALCON 9
Launch site
Air Force Western Test Range (AFWTR)
Object type
Payload
Rocket body
Debris
Shape & HBR
Box + 1 Pan, 10.1 m
Radar Cross Section
13.562 m², Large (>1 m²)

Expand to show TLE details & history
Last TLE update: 14 hours ago

TLE from 14 hours ago
0 STARLINK-3085
1 49156U 21082AC  25310.70407457  .00000270  00000-0  30414-4 0  9998
2 49156  70.0002 204.5367 0002559 273.2233  86.8633 14.98331495229628
Epoch: 2025-11-06T16:53Z
TLE epoch observation values (Epoch: 2025-11-06T16:53:52.042Z)
Latitude
-0.00007°
Longitude
-95.08874°
Altitude
574.378 km
Speed
7.574 km/s
True Right ascension
13h 38m 08s
True Declination
0° 00' 00"
Sunlit
Object was in daylight at epoch
Visualization orbit readout
Latitude
Unknown
Longitude
Unknown
Altitude
Unknown
Speed
Unknown
Apparent Right ascension
Unknown
Apparent Declination
Unknown
Sunlit
N/A
Visualization observer readout
Local Sidereal Time
03:21:26
Azimuth
Unknown
Elevation
Unknown
Doppler factor
Unknown
Orbital elements
Apogee altitude
571.778 km
Perigee altitude
568.221 km
Semi-major axis
6,948.136 km
Eccentricity
0.00026
Inclination
70.0002°
RAAN
204.5367°
Arg. of periapsis
273.2233°
True anomaly
86.89258°
Mean anomaly
86.8633°
Eccentric anomaly
86.87794°
Mean motion
3.74749 °/min
Orbital period
96.06 mins
BSTAR
0.000030414
Loading maneuver chart data...
Computing Atmospheric mass density...
Loading historical data...
Loading historical data...
Loading historical data...
Loading historical data...
Loading historical data...
Loading historical data...
Loading historical data...

Documentation

Showing up to 5 results
|